C6006 KPIE-KLAL

Flight info

Callsign C6006
Flight time N/A
Altitude 9000
Route VFR
Aircraft H60/L-DV/C

Departure

Time 2026-04-26 21:02
Airport St. Petersburg Clearwater International Airport (KPIE)

Arrival

Time N/A
Airport Lakeland Linder International Airport (KLAL)
Time Latitude Longitude Altitude Speed Heading
2026-04-26 20:48 27.91294 -82.69471 17 ft 0 kts 111°
2026-04-26 20:51 27.91291 -82.69448 19 ft 5 kts 133°
2026-04-26 20:51 27.91286 -82.69432 18 ft 0 kts 125°
2026-04-26 20:52 27.91289 -82.69428 18 ft 4 kts 219°
2026-04-26 20:52 27.91300 -82.69418 17 ft 0 kts 215°
2026-04-26 20:58 27.91269 -82.69420 18 ft 9 kts 129°
2026-04-26 20:58 27.91257 -82.69402 17 ft 4 kts 127°
2026-04-26 20:58 27.91240 -82.69377 17 ft 1 kts 127°
2026-04-26 20:58 27.91223 -82.69354 16 ft 0 kts 129°
2026-04-26 20:59 27.91220 -82.69349 16 ft 0 kts 127°
2026-04-26 21:00 27.91216 -82.69349 29 ft 2 kts 128°
2026-04-26 21:00 27.91150 -82.69262 68 ft 35 kts 127°
2026-04-26 21:00 27.91177 -82.68813 271 ft 83 kts 76°
2026-04-26 21:01 27.91361 -82.68069 329 ft 118 kts 72°
2026-04-26 21:01 27.91612 -82.67064 308 ft 139 kts 72°
2026-04-26 21:01 27.91896 -82.66057 309 ft 142 kts 64°
2026-04-26 21:01 27.92187 -82.64945 476 ft 153 kts 78°
2026-04-26 21:02 27.92366 -82.63731 300 ft 155 kts 79°
2026-04-26 21:02 27.92521 -82.62553 214 ft 152 kts 76°
2026-04-26 21:02 27.92780 -82.61448 631 ft 140 kts 73°
2026-04-26 21:02 27.92957 -82.60224 511 ft 177 kts 77°
2026-04-26 21:03 27.93123 -82.58749 579 ft 194 kts 92°
2026-04-26 21:03 27.92326 -82.57851 664 ft 153 kts 185°
2026-04-26 21:03 27.91375 -82.57900 471 ft 133 kts 186°
2026-04-26 21:03 27.90374 -82.57850 652 ft 141 kts 183°
2026-04-26 21:04 27.89353 -82.57781 567 ft 146 kts 182°
2026-04-26 21:04 27.88350 -82.57757 566 ft 135 kts 193°
2026-04-26 21:04 27.87254 -82.57846 541 ft 182 kts 183°
2026-04-26 21:04 27.85969 -82.57484 570 ft 199 kts 153°
2026-04-26 21:05 27.84930 -82.56674 587 ft 165 kts 140°
2026-04-26 21:05 27.84235 -82.55733 615 ft 150 kts 131°
2026-04-26 21:05 27.83561 -82.54615 408 ft 205 kts 125°
2026-04-26 21:05 27.83183 -82.53235 291 ft 161 kts 91°
2026-04-26 21:06 27.83227 -82.52070 631 ft 138 kts 79°
2026-04-26 21:06 27.83257 -82.50940 461 ft 154 kts 83°
2026-04-26 21:06 27.83290 -82.49705 436 ft 158 kts 86°
2026-04-26 21:06 27.83356 -82.48460 482 ft 157 kts 88°
2026-04-26 21:07 27.83292 -82.47240 488 ft 154 kts 94°
2026-04-26 21:07 27.83270 -82.46095 528 ft 131 kts 88°
2026-04-26 21:07 27.83279 -82.45001 456 ft 162 kts 91°
2026-04-26 21:07 27.83290 -82.43779 456 ft 155 kts 89°
2026-04-26 21:08 27.83246 -82.42880 791 ft 108 kts 94°
2026-04-26 21:08 27.83248 -82.41795 505 ft 140 kts 92°
2026-04-26 21:08 27.83283 -82.40710 514 ft 137 kts 86°
2026-04-26 21:08 27.83311 -82.39597 501 ft 145 kts 90°
2026-04-26 21:09 27.83296 -82.38630 497 ft 125 kts 89°
2026-04-26 21:09 27.83350 -82.37634 541 ft 115 kts 87°
2026-04-26 21:09 27.83437 -82.36549 494 ft 147 kts 87°
2026-04-26 21:09 27.83534 -82.35442 540 ft 121 kts 87°
2026-04-26 21:10 27.83578 -82.34476 483 ft 145 kts 91°
2026-04-26 21:10 27.83603 -82.33359 459 ft 138 kts 91°
2026-04-26 21:10 27.83623 -82.32257 487 ft 132 kts 91°
2026-04-26 21:10 27.83644 -82.31283 490 ft 137 kts 91°
2026-04-26 21:11 27.83686 -82.30118 446 ft 145 kts 91°
2026-04-26 21:11 27.83688 -82.28978 493 ft 144 kts 91°
2026-04-26 21:11 27.83735 -82.27851 514 ft 135 kts 75°
2026-04-26 21:11 27.84046 -82.27120 526 ft 87 kts 74°
2026-04-26 21:12 27.84102 -82.26286 509 ft 136 kts 90°
2026-04-26 21:12 27.84076 -82.25128 530 ft 140 kts 99°
2026-04-26 21:12 27.84015 -82.24023 501 ft 149 kts 83°
2026-04-26 21:12 27.84627 -82.23092 494 ft 155 kts 30°
2026-04-26 21:13 27.85227 -82.22674 494 ft 79 kts 25°
2026-04-26 21:13 27.85959 -82.22273 425 ft 145 kts 18°
2026-04-26 21:13 27.86776 -82.21806 563 ft 106 kts 16°
2026-04-26 21:13 27.87389 -82.21404 641 ft 116 kts 22°
2026-04-26 21:14 27.88114 -82.20984 1045 ft 118 kts 357°
2026-04-26 21:14 27.88683 -82.20913 775 ft 18 kts
2026-04-26 21:14 27.88673 -82.20915 719 ft 2 kts 352°
2026-04-26 21:14 27.89014 -82.20897 546 ft 99 kts
2026-04-26 21:15 27.89639 -82.20807 556 ft 74 kts
2026-04-26 21:15 27.90132 -82.20683 516 ft 74 kts
2026-04-26 21:15 27.90645 -82.20583 412 ft 75 kts
2026-04-26 21:15 27.91139 -82.20490 575 ft 73 kts 359°
2026-04-26 21:16 27.91823 -82.20401 510 ft 118 kts
2026-04-26 21:16 27.92556 -82.20261 505 ft 92 kts
2026-04-26 21:16 27.93085 -82.20127 558 ft 74 kts 13°
2026-04-26 21:16 27.93583 -82.20033 533 ft 67 kts 356°
2026-04-26 21:17 27.94102 -82.19925 623 ft 84 kts
2026-04-26 21:17 27.94659 -82.19818 462 ft 78 kts
2026-04-26 21:17 27.95277 -82.19639 525 ft 100 kts 12°
2026-04-26 21:17 27.95978 -82.19391 457 ft 115 kts 13°
2026-04-26 21:18 27.96758 -82.19067 411 ft 123 kts 15°
2026-04-26 21:18 27.97582 -82.18741 504 ft 129 kts 20°
2026-04-26 21:18 27.98378 -82.18401 707 ft 121 kts 13°
2026-04-26 21:18 27.99134 -82.18051 760 ft 121 kts 17°
2026-04-26 21:19 28.00103 -82.17764 466 ft 158 kts
2026-04-26 21:19 28.01034 -82.17475 503 ft 111 kts 11°
2026-04-26 21:19 28.01736 -82.17131 472 ft 123 kts 25°
2026-04-26 21:19 28.02506 -82.16637 461 ft 134 kts 33°
2026-04-26 21:20 28.03216 -82.15920 489 ft 137 kts 35°
2026-04-26 21:20 28.03980 -82.15250 469 ft 137 kts 36°
2026-04-26 21:20 28.04711 -82.14566 463 ft 135 kts 36°
2026-04-26 21:20 28.05440 -82.13860 428 ft 128 kts 30°
2026-04-26 21:21 28.06084 -82.13064 439 ft 149 kts 50°
2026-04-26 21:21 28.06684 -82.12279 453 ft 110 kts 43°
2026-04-26 21:21 28.07280 -82.11536 409 ft 145 kts 46°
2026-04-26 21:21 28.07948 -82.10731 408 ft 135 kts 46°
2026-04-26 21:22 28.08597 -82.09913 428 ft 140 kts 46°
2026-04-26 21:22 28.09246 -82.09113 432 ft 133 kts 46°
2026-04-26 21:22 28.09852 -82.08296 431 ft 130 kts 46°
2026-04-26 21:23 28.11068 -82.06739 471 ft 134 kts 44°
2026-04-26 21:23 28.11728 -82.05958 541 ft 128 kts 41°
2026-04-26 21:23 28.12292 -82.05247 738 ft 133 kts 44°
2026-04-26 21:23 28.12963 -82.04434 820 ft 139 kts 44°
2026-04-26 21:24 28.13619 -82.03590 816 ft 150 kts 46°
2026-04-26 21:24 28.14184 -82.02639 769 ft 137 kts 57°
2026-04-26 21:24 28.14581 -82.02024 706 ft 87 kts 44°
2026-04-26 21:24 28.15336 -82.01365 558 ft 156 kts 38°
2026-04-26 21:25 28.16086 -82.00660 499 ft 110 kts 36°
2026-04-26 21:25 28.16558 -82.00178 496 ft 91 kts 40°
2026-04-26 21:25 28.17215 -81.99510 549 ft 152 kts 38°
2026-04-26 21:25 28.18056 -81.98763 476 ft 142 kts 38°
2026-04-26 21:26 28.18742 -81.98048 469 ft 124 kts 38°
2026-04-26 21:26 28.19348 -81.97474 772 ft 102 kts 35°
2026-04-26 21:26 28.19869 -81.97048 1252 ft 92 kts 39°
2026-04-26 21:26 28.20577 -81.96400 727 ft 154 kts 37°
2026-04-26 21:27 28.21429 -81.95680 896 ft 146 kts 32°
2026-04-26 21:27 28.22237 -81.94959 941 ft 149 kts 38°
2026-04-26 21:27 28.22968 -81.94215 911 ft 144 kts 40°
2026-04-26 21:27 28.23740 -81.93466 810 ft 148 kts 39°
2026-04-26 21:28 28.24175 -81.92533 900 ft 130 kts 86°
2026-04-26 21:28 28.24070 -81.91703 741 ft 81 kts 121°
2026-04-26 21:28 28.23658 -81.90953 901 ft 139 kts 123°
2026-04-26 21:28 28.23202 -81.89890 991 ft 148 kts 119°
2026-04-26 21:29 28.22697 -81.88855 848 ft 145 kts 117°
2026-04-26 21:29 28.22242 -81.87900 820 ft 129 kts 116°
2026-04-26 21:29 28.21828 -81.87037 676 ft 126 kts 123°
2026-04-26 21:29 28.21438 -81.86133 916 ft 124 kts 121°
2026-04-26 21:30 28.21023 -81.85207 817 ft 142 kts 122°
2026-04-26 21:30 28.20714 -81.84520 929 ft 145 kts 120°
2026-04-26 21:30 28.20252 -81.83555 813 ft 131 kts 124°
2026-04-26 21:30 28.19771 -81.82591 863 ft 152 kts 124°
2026-04-26 21:31 28.19281 -81.81572 983 ft 143 kts 123°
2026-04-26 21:31 28.18824 -81.80580 852 ft 135 kts 121°
2026-04-26 21:31 28.18424 -81.79732 857 ft 116 kts 125°
2026-04-26 21:31 28.18012 -81.78959 711 ft 116 kts 128°
2026-04-26 21:32 28.17661 -81.78174 642 ft 105 kts 121°
2026-04-26 21:32 28.17378 -81.77480 723 ft 90 kts 123°
2026-04-26 21:32 28.17146 -81.76878 799 ft 77 kts 123°
2026-04-26 21:32 28.16923 -81.76305 744 ft 105 kts 123°
2026-04-26 21:33 28.16479 -81.75489 688 ft 132 kts 130°
2026-04-26 21:33 28.15781 -81.74604 947 ft 171 kts 146°
2026-04-26 21:33 28.14587 -81.74185 867 ft 179 kts 176°
2026-04-26 21:33 28.13332 -81.73875 981 ft 192 kts 174°
2026-04-26 21:34 28.12043 -81.73645 1080 ft 168 kts 176°
2026-04-26 21:34 28.10988 -81.73500 790 ft 145 kts 182°
2026-04-26 21:34 28.10112 -81.73365 1104 ft 81 kts 184°
2026-04-26 21:34 28.09453 -81.73310 1058 ft 101 kts 178°
2026-04-26 21:35 28.08728 -81.73272 1119 ft 103 kts 186°
2026-04-26 21:35 28.07977 -81.73203 1087 ft 117 kts 175°
2026-04-26 21:35 28.07232 -81.73111 1114 ft 101 kts 182°
2026-04-26 21:35 28.06539 -81.73055 1127 ft 107 kts 183°
2026-04-26 21:36 28.05827 -81.72904 1134 ft 99 kts 181°
2026-04-26 21:36 28.05131 -81.72772 1130 ft 98 kts 176°
2026-04-26 21:36 28.04447 -81.72577 1110 ft 107 kts 175°
2026-04-26 21:36 28.03665 -81.72450 1121 ft 100 kts 161°
2026-04-26 21:37 28.02962 -81.72470 1136 ft 100 kts 182°
2026-04-26 21:37 28.02280 -81.72555 990 ft 97 kts 204°
2026-04-26 21:37 28.01581 -81.72700 1044 ft 115 kts 195°
2026-04-26 21:37 28.00749 -81.72799 970 ft 124 kts 197°
2026-04-26 21:38 27.99905 -81.72847 810 ft 88 kts 201°
2026-04-26 21:38 27.99558 -81.72878 1063 ft 89 kts 201°
2026-04-26 21:38 27.98689 -81.72863 1086 ft 132 kts 189°
2026-04-26 21:38 27.97865 -81.72986 1104 ft 103 kts 193°
2026-04-26 21:39 27.97121 -81.73087 1018 ft 123 kts 195°
2026-04-26 21:39 27.96353 -81.73100 1119 ft 91 kts 191°
2026-04-26 21:39 27.95705 -81.73164 1004 ft 87 kts 190°
2026-04-26 21:39 27.95114 -81.73238 992 ft 95 kts 189°
2026-04-26 21:40 27.94383 -81.73327 1045 ft 116 kts 196°
2026-04-26 21:40 27.93558 -81.73405 1092 ft 121 kts 192°
2026-04-26 21:40 27.92937 -81.73473 1046 ft 81 kts 194°
2026-04-26 21:40 27.92336 -81.73781 1023 ft 110 kts 208°
2026-04-26 21:41 27.91755 -81.74057 1217 ft 73 kts 211°
2026-04-26 21:41 27.91045 -81.74480 1046 ft 151 kts 207°
2026-04-26 21:41 27.90135 -81.75012 1042 ft 141 kts 212°
2026-04-26 21:41 27.89433 -81.75361 1335 ft 43 kts 206°
2026-04-26 21:42 27.88934 -81.75573 1137 ft 147 kts 213°
2026-04-26 21:42 27.88030 -81.76133 1103 ft 114 kts 211°
2026-04-26 21:42 27.87410 -81.76421 1117 ft 85 kts 197°
2026-04-26 21:42 27.86880 -81.76777 1071 ft 103 kts 212°
2026-04-26 21:43 27.86244 -81.77337 1219 ft 126 kts 226°
2026-04-26 21:43 27.85625 -81.77874 1355 ft 96 kts 220°
2026-04-26 21:43 27.85071 -81.78203 798 ft 86 kts 214°
2026-04-26 21:43 27.84581 -81.78586 985 ft 79 kts 223°
2026-04-26 21:44 27.84093 -81.79053 1044 ft 101 kts 222°
2026-04-26 21:44 27.83539 -81.79531 1056 ft 100 kts 223°
2026-04-26 21:44 27.82986 -81.79940 1070 ft 93 kts 224°
2026-04-26 21:44 27.82445 -81.80375 1037 ft 98 kts 221°
2026-04-26 21:45 27.81830 -81.80764 1051 ft 107 kts 210°
2026-04-26 21:45 27.81260 -81.81114 906 ft 84 kts 223°
2026-04-26 21:45 27.80831 -81.81600 892 ft 112 kts 246°
2026-04-26 21:45 27.80637 -81.82285 1074 ft 64 kts 269°
2026-04-26 21:46 27.80546 -81.83019 1094 ft 106 kts 265°
2026-04-26 21:46 27.80432 -81.83858 1033 ft 99 kts 262°
2026-04-26 21:46 27.80329 -81.84438 1051 ft 76 kts 262°
2026-04-26 21:46 27.80197 -81.85125 1024 ft 94 kts 263°
2026-04-26 21:47 27.80091 -81.85783 1121 ft 85 kts 264°
2026-04-26 21:47 27.79975 -81.86460 1090 ft 89 kts 264°
2026-04-26 21:47 27.80004 -81.87145 1049 ft 87 kts 279°
2026-04-26 21:47 27.80021 -81.87826 1055 ft 88 kts 271°
2026-04-26 21:48 27.79955 -81.88499 1135 ft 84 kts 266°
2026-04-26 21:48 27.80146 -81.89089 1185 ft 85 kts 307°
2026-04-26 21:48 27.80530 -81.89605 1068 ft 88 kts 307°
2026-04-26 21:48 27.80896 -81.90128 1163 ft 81 kts 306°
2026-04-26 21:49 27.81242 -81.90628 1129 ft 88 kts 305°
2026-04-26 21:49 27.81740 -81.91226 973 ft 111 kts 309°
2026-04-26 21:49 27.82243 -81.91857 1090 ft 107 kts 309°
2026-04-26 21:49 27.82684 -81.92426 1073 ft 86 kts 309°
2026-04-26 21:50 27.83061 -81.92899 1031 ft 84 kts 309°
2026-04-26 21:50 27.83307 -81.93231 1158 ft 81 kts 305°
2026-04-26 21:50 27.83809 -81.93881 1094 ft 92 kts 309°
2026-04-26 21:50 27.84196 -81.94436 910 ft 74 kts 307°
2026-04-26 21:51 27.84558 -81.94924 713 ft 88 kts 303°
2026-04-26 21:51 27.84931 -81.95492 1007 ft 82 kts 302°
2026-04-26 21:51 27.85357 -81.95948 963 ft 95 kts 311°
2026-04-26 21:51 27.85845 -81.96536 1037 ft 113 kts 308°
2026-04-26 21:52 27.86436 -81.97245 1043 ft 128 kts 311°